Tracking 28125 objects as of 2-Oct-2023
HD Live streaming from Space Station
objects crossing your sky now

SS 1

Track SS 1 now!
10-day predictions
SS 1 is classified as:


NORAD ID: 10529
Int'l Code: 1977-112D
Perigee: 489.3 km
Apogee: 1,410.9 km
Inclination: 63.3 °
Period: 103.9 minutes
Semi major axis: 7321 km
RCS: Unknown
Launch date: December 8, 1977
Source: United States (US)
Launch site: AIR FORCE WESTERN TEST RANGE (AFWTR)
Your satellite tracking list
Your tracking list is empty




NASA's NSSDC Master Catalog

Two Line Element Set (TLE):
1 10529U 77112D   23275.42775621  .00001697  00000-0  32056-3 0  9990
2 10529  63.3244 235.1570 0629367 147.8729 216.2351 13.85920498214876
Source of the keplerian elements: McCants